Tracking 33744 objects as of 12-Apr-2026
HD Live streaming from Space Station
objects crossing your sky now

STARLINK-36924

Track STARLINK-36924 now!
10-day predictions
STARLINK-36924 is classified as:


NORAD ID: 68054
Int'l Code: 2026-041Q
Perigee: 425.1 km
Apogee: 426.6 km
Inclination: 53.2 °
Period: 92.9 minutes
Semi major axis: 6796 km
RCS: Unknown
Launch date: March 2, 2026
Source: United States (US)
Launch site: AIR FORCE EASTERN TEST RANGE (AFETR)
Your satellite tracking list
Your tracking list is empty




NASA's NSSDC Master Catalog

Two Line Element Set (TLE):
1 68054U 26041Q   26102.50001156  .00015249  00000-0  28173-3 0  9990
2 68054  53.1597 254.7165 0001104  91.4240  86.9672 15.49304621  6325
Source of the keplerian elements: AFSPC